Location: Bear Valley
(38.4650°N, 120.0390°W)
Time: 10:07:14
(UTC-07:00)

ISS - Visible Passes

Search period start: 20 March 2019 00:00
Search period end: 30 March 2019 00:00
Orbit: 406 x 411 km, 51.6° (Epoch: 21 March)

Date Brightness Start Highest point End Pass type
(mag) Time Alt. Az. Time Alt. Az. Time Alt. Az.
20 Mar -3.2 20:58:16 10° SW 21:00:50 51° WSW 21:00:50 51° WSW visible
21 Mar -3.6 20:07:23 10° SSW 20:10:34 50° SE 20:12:52 17° ENE visible
21 Mar -0.6 21:44:43 10° WNW 21:45:39 15° WNW 21:45:39 15° WNW visible
22 Mar -2.2 20:53:07 10° W 20:56:07 32° NNW 20:57:27 23° NNE visible
23 Mar -3.2 20:01:46 10° WSW 20:05:00 57° NW 20:08:15 10° NE visible
23 Mar -0.7 21:40:30 10° NW 21:41:48 13° NNW 21:41:48 13° NNW visible
24 Mar -1.2 20:48:30 10° WNW 20:50:49 18° NNW 20:53:08 10° NNE visible
25 Mar -1.7 19:56:45 10° W 19:59:33 26° NNW 20:02:23 10° NNE visible
26 Mar -0.9 20:44:25 10° NW 20:45:36 11° NNW 20:46:49 10° N visible
27 Mar -1.1 19:52:13 10° WNW 19:54:14 15° NNW 19:56:14 10° NNE visible
29 Mar -0.8 19:48:24 10° NNW 19:49:00 10° NNW 19:49:36 10° N visible
